www.pogodaiklimat.ru

Погода и климат >> Архив погоды >> Великобритания >> Аэродром Andrewsfield


ПОГОДА на Аэродроме Andrewsfield

  • Прогноз погоды на Аэродроме Andrewsfield
  • Монитор погоды на Аэродроме Andrewsfield

АРХИВ ПОГОДЫ на Аэродроме Andrewsfield

Время (UTC), дата Ветер
(напр.,м/с)
 
Видим.   Явления Облачность Т
(С)
Тd
(С)
f
(%)
Тe
(С)
Тes
(С)
Комфортность P
(гПа)
Po
(гПа)
Тmin
(С)
Tmax
(С)
R
(мм)
R24
(мм)
S
(см)
19 16.09 С 2 70 км н/о +15.1 +12.2 83 +15 +15 1022.8 1012.3
20 16.09 С 2 70 км н/о +14.7 +11.9 83 +15 +15 1023.0 1012.5
21 16.09 С 2 55 км н/о +14.4 +12.0 85 +14 +14 1023.2 1012.7
22 16.09 СЗ 1 50 км н/о +14.1 +11.2 83 +14 +14 1023.3 1012.8
23 16.09 З 1 15 км н/о +11.4 +10.0 91 +11 +11 1023.3 1012.7
00 17.09 З 2 9000 м дым н/о +10.0 +9.1 94 +9 +9 1023.1 1012.4
01 17.09 СЗ 2 14 км н/о +11.3 +10.4 94 +10 +10 1023.1 1012.5
02 17.09 СЗ 3 13 км н/о +11.7 +10.3 91 +10 +10 1023.2 1012.6
03 17.09 СЗ 3 27 км н/о +10.9 +9.0 88 +9 +9 1023.2 1012.6
04 17.09 СЗ 3 30 км н/о +9.9 +8.3 90 +8 +8 1023.4 1012.8
05 17.09 СЗ 2 30 км н/о +8.9 +7.7 92 +7 +7 1023.4 1012.7
06 17.09 СЗ 2 29 км н/о +8.6 +7.5 93 +7 +7 1023.9 1013.1 +8.6
07 17.09 СЗ 3 30 км н/о +9.4 +8.0 91 +7 +7 1024.1 1013.4
08 17.09 С 3 50 км н/о +11.2 +7.9 80 +9 +9 1024.6 1014.0
09 17.09 С 4 55 км н/о +12.8 +7.6 71 +11 +11 1024.7 1014.1
10 17.09 С 4 65 км н/о +14.2 +7.2 63 +13 +13 1025.0 1014.5
11 17.09 СЗ 4 60 км н/о +15.1 +6.6 57 +14 +14 1025.0 1014.5
12 17.09 С 4 60 км н/о +15.7 +6.6 55 +15 +15 1025.2 1014.8
13 17.09 С 5 65 км н/о +16.4 +6.4 52 +16 +16 1024.9 1014.5
14 17.09 С 5 65 км н/о +16.9 +6.3 50 +16 +16 1025.1 1014.6
15 17.09 С 5 >70 км н/о +16.7 +6.5 51 +16 +16 1025.4 1014.9
16 17.09 СВ 4 70 км н/о +16.4 +6.4 52 +16 +16 1025.4 1015.0
17 17.09 СВ 4 60 км н/о +15.7 +5.7 51 +15 +15 1025.8 1015.3
18 17.09 СВ 3 55 км н/о +14.1 +5.6 57 +13 +13 1026.2 1015.7 +17.7
20 17.09 СВ 3 45 км н/о +10.6 +5.4 70 +9 +9 1027.6 1016.9
21 17.09 СВ 3 40 км н/о +9.5 +5.1 74 +7 +7 1028.3 1017.6
22 17.09 С 2 35 км н/о +8.9 +5.3 78 +7 +7 1028.6 1017.8
23 17.09 С 1 35 км н/о +7.4 +4.5 82 +7 +7 1028.7 1017.9
00 18.09 С 3 30 км н/о +7.6 +4.8 82 +5 +5 1028.6 1017.8
01 18.09 С 2 30 км н/о +7.7 +4.6 81 +6 +6 1028.9 1018.1
02 18.09 С 2 30 км н/о +7.1 +4.3 82 +5 +5 1028.9 1018.0
03 18.09 С 3 30 км н/о +6.9 +4.5 85 +4 +4 1028.8 1017.9
04 18.09 С 2 30 км н/о +6.7 +4.5 86 +4 +4 1028.8 1018.0
05 18.09 С 3 30 км н/о +6.5 +4.3 86 +4 +4 1029.1 1018.3
06 18.09 С 2 30 км н/о +6.2 +4.5 89 +4 +4 1029.5 1018.6 +5.8
07 18.09 С 2 30 км н/о +7.5 +5.3 86 +5 +5 1029.9 1019.0
08 18.09 С 2 35 км н/о +10.8 +7.2 78 +10 +10 1030.3 1019.6
09 18.09 С 3 40 км н/о +12.9 +7.0 67 +12 +12 1030.5 1019.8
10 18.09 СВ 3 45 км н/о +14.0 +6.5 61 +13 +13 1030.4 1019.8
11 18.09 СВ 3 50 км н/о +15.1 +6.7 57 +14 +14 1030.3 1019.7
12 18.09 СВ 3 50 км н/о +16.1 +6.7 54 +16 +16 1029.9 1019.4
13 18.09 С 2 60 км н/о +17.2 +6.6 50 +18 +18 1029.6 1019.1
14 18.09 СВ 2 55 км н/о +17.8 +6.4 47 +19 +19 1029.3 1018.8
15 18.09 СВ 4 55 км н/о +17.4 +5.9 47 +17 +17 1029.0 1018.6
16 18.09 С 3 50 км н/о +17.2 +5.5 46 +17 +17 1028.9 1018.4
17 18.09 СВ 3 50 км н/о +16.9 +5.8 48 +17 +17 1028.8 1018.3
18 18.09 СВ 2 55 км н/о +14.6 +5.4 54 +14 +14 1029.2 1018.6 +17.9
19 18.09 ЮВ 3 45 км н/о +12.5 +7.1 70 +11 +11 1029.8 1019.2
20 18.09 ЮВ 2 45 км н/о +11.5 +7.2 75 +11 +11 1030.2 1019.5
21 18.09 ЮВ 1 45 км н/о +10.4 +7.2 81 +11 +11 1030.6 1019.8
22 18.09 В 1 40 км н/о +9.4 +7.1 86 +9 +9 1030.9 1020.1
23 18.09 СВ 1 35 км н/о +9.0 +7.3 89 +8 +8 1031.1 1020.3
00 19.09 СЗ 1 35 км н/о +7.5 +5.6 88 +8 +8 1031.1 1020.2
01 19.09 С 1 35 км н/о +7.6 +6.8 95 +7 +7 1031.1 1020.3
02 19.09 СЗ 1 30 км н/о +7.0 +6.1 94 +6 +6 1031.0 1020.1
03 19.09 С 2 30 км в посл. час туман н/о +7.1 +6.4 95 +5 +5 1031.0 1020.1
04 19.09 СЗ 1 16 км н/о +6.7 +6.0 95 +5 +5 1030.7 1019.9
05 19.09 С 1 28 км н/о +6.3 +5.7 96 +5 +5 1030.9 1020.0
06 19.09 СЗ 1 29 км н/о +6.7 +6.2 97 +5 +5 1031.3 1020.4 +6.2
07 19.09 СЗ 1 35 км н/о +9.2 +8.8 97 +8 +8 1031.6 1020.8
08 19.09 СЗ 2 45 км н/о +13.1 +9.3 78 +13 +13 1031.9 1021.2
09 19.09 С 2 45 км н/о +15.0 +8.9 67 +15 +15 1032.2 1021.6
10 19.09 В 2 50 км н/о +16.9 +8.6 58 +17 +17 1031.9 1021.4
11 19.09 СВ 2 55 км н/о +17.6 +8.0 53 +18 +18 1031.7 1021.2
12 19.09 СВ 3 >70 км н/о +18.4 +8.6 53 +19 +19 1031.4 1021.0
13 19.09 В 3 >70 км н/о +18.9 +8.4 50 +20 +20 1030.9 1020.4
14 19.09 В 2 >70 км н/о +19.7 +8.8 49 +21 +21 комфорт 1030.5 1020.1
15 19.09 ЮВ 4 55 км н/о +19.7 +8.9 50 +21 +21 комфорт 1030.2 1019.8
16 19.09 ЮВ 4 >70 км н/о +18.8 +8.5 51 +19 +19 1030.1 1019.6
17 19.09 ЮВ 5 >70 км н/о +17.2 +8.3 56 +17 +17 1030.0 1019.5
18 19.09 ЮВ 4 >70 км н/о +15.3 +8.1 62 +14 +14 1030.3 1019.8 +20.6
19 19.09 ЮВ 2 50 км н/о +12.9 +7.9 72 +12 +12 1030.7 1020.1
20 19.09 ЮВ 3 50 км н/о +12.3 +8.7 79 +11 +11 1030.7 1020.0
21 19.09 В 1 45 км н/о +11.2 +8.4 83 +11 +11 1030.7 1020.0
22 19.09 В 1 30 км н/о +10.0 +8.4 90 +9 +9 1030.8 1020.0
23 19.09 В 1 29 км н/о +9.4 +8.6 95 +9 +9 1030.8 1020.0
00 20.09 В 1 30 км н/о +9.8 +9.2 96 +9 +9 1030.5 1019.8
01 20.09 СВ 2 16 км н/о +8.6 +8.0 96 +7 +7 1030.3 1019.5
02 20.09 В 1 8000 м дымка н/о +8.6 +8.4 99 +8 +8 1030.0 1019.2
03 20.09 СВ 2 9000 м дымка н/о +7.8 +7.6 99 +6 +6 1029.5 1018.7
04 20.09 В 1 8000 м дымка н/о +7.7 +7.6 99 +7 +7 1029.0 1018.2
05 20.09 СВ 2 10 км дымка н/о +7.3 +7.1 99 +5 +5 1028.4 1017.6
06 20.09 СВ 2 7000 м дымка н/о +8.0 +7.9 99 +6 +6 1028.5 1017.7 +7.0
07 20.09 В 2 18 км н/о +10.8 +10.8 100 +10 +10 1028.5 1017.8
08 20.09 ЮВ 2 30 км н/о +14.2 +12.2 88 +14 +14 1028.5 1017.9
09 20.09 В 4 40 км н/о +15.5 +11.5 77 +15 +15 1028.3 1017.8
10 20.09 ЮВ 6 55 км н/о +16.5 +10.3 67 +15 +15 1027.8 1017.3
11 20.09 ЮВ 6 65 км н/о +18.2 +10.2 60 +18 +18 1027.2 1016.7
12 20.09 ЮВ 7 55 км н/о +18.6 +10.2 58 +18 +18 1026.5 1016.1
13 20.09 В 6 60 км н/о +18.5 +9.4 55 +18 +18 1025.8 1015.4
14 20.09 ЮВ 7 70 км н/о +18.7 +8.5 51 +18 +18 1025.1 1014.7
15 20.09 В 7 >70 км н/о +18.6 +6.9 46 +18 +18 1024.2 1013.8
16 20.09 В 6 >70 км н/о +18.0 +7.5 50 +18 +18 1023.4 1013.0
17 20.09 В 6 70 км н/о +17.0 +7.6 54 +16 +16 1022.7 1012.3
18 20.09 В 7 55 км н/о +15.3 +8.9 66 +14 +14 1022.4 1011.9 +19.3
19 20.09 В 4 50 км н/о +13.8 +9.1 73 +13 +13 1022.1 1011.6
20 20.09 В 4 35 км н/о +13.2 +9.6 79 +11 +11 1021.7 1011.1
21 20.09 В 4 35 км н/о +13.3 +10.1 81 +12 +12 1021.0 1010.5
22 20.09 В 4 35 км н/о +13.6 +9.9 78 +12 +12 1020.8 1010.3
23 20.09 В 4 30 км н/о +13.6 +10.0 79 +12 +12 1020.1 1009.6
00 21.09 В 3 30 км н/о +13.0 +9.7 80 +12 +12 1019.6 1009.1
01 21.09 В 4 35 км н/о +12.7 +9.3 80 +11 +11 1019.1 1008.5
02 21.09 В 3 35 км н/о +11.9 +9.0 82 +10 +10 1018.4 1007.9
03 21.09 В 4 35 км н/о +12.1 +9.7 85 +10 +10 1017.6 1007.1
04 21.09 В 4 40 км н/о +12.1 +9.4 84 +10 +10 1016.9 1006.3
05 21.09 В 4 40 км н/о +11.6 +9.2 85 +10 +10 1016.5 1005.9
06 21.09 В 3 45 км н/о +11.6 +8.8 83 +10 +10 1016.3 1005.8 +11.5
07 21.09 ЮВ 4 50 км н/о +13.4 +9.7 78 +12 +12 1016.0 1005.5
08 21.09 ЮВ 6 50 км н/о +15.8 +10.3 70 +15 +15 1015.5 1005.1
09 21.09 ЮВ 6 50 км н/о +17.5 +9.9 61 +17 +17 1015.2 1004.9
10 21.09 ЮВ 7 45 км н/о +18.4 +9.3 55 +18 +18 1014.5 1004.2
11 21.09 ЮВ 6 60 км н/о +19.9 +9.8 52 +21 +21 комфорт 1013.6 1003.4
12 21.09 В 6 65 км н/о +20.6 +8.5 46 +22 +22 комфорт 1012.9 1002.7
13 21.09 ЮВ 6 60 км н/о +21.6 +9.2 45 +23 +23 комфорт 1012.1 1002.0
14 21.09 В 7 55 км н/о +20.8 +9.7 49 +22 +22 комфорт 1011.6 1001.4
15 21.09 ЮВ 7 45 км н/о +19.5 +10.4 56 +20 +20 1011.0 1000.8
16 21.09 ЮВ 6 35 км н/о +19.1 +9.8 55 +19 +19 1010.7 1000.5
17 21.09 В 5 35 км н/о +19.3 +9.0 51 +20 +20 1009.9 999.7
18 21.09 ЮВ 4 35 км н/о +17.9 +9.7 59 +18 +18 1009.7 999.5 +22.0
19 21.09 В 4 40 км н/о +16.8 +10.1 65 +16 +16 1009.5 999.2
20 21.09 В 3 35 км н/о +15.9 +10.8 72 +15 +15 1009.2 998.9
21 21.09 В 3 30 км н/о +15.4 +11.1 76 +15 +15 1008.8 998.5
22 21.09 В 3 30 км н/о +15.3 +11.9 80 +15 +15 1008.2 997.9
23 21.09 В 4 29 км н/о +15.4 +12.7 84 +15 +15 1007.5 997.2
00 22.09 В 3 30 км н/о +16.0 +13.6 86 +15 +15 1007.1 996.8
01 22.09 В 3 30 км н/о +15.5 +13.0 85 +15 +15 1006.5 996.2
02 22.09 В 3 29 км н/о +15.6 +13.3 86 +15 +15 1005.8 995.5
03 22.09 В 4 27 км н/о +15.8 +13.7 87 +15 +15 1005.2 994.9
04 22.09 В 3 27 км н/о +16.1 +13.8 86 +16 +16 1004.4 994.1
05 22.09 В 3 27 км н/о +15.6 +13.6 88 +15 +15 1004.0 993.8
06 22.09 В 3 28 км н/о +16.0 +13.9 87 +16 +16 1003.8 993.6 +15.1
07 22.09 ЮВ 3 30 км н/о +17.2 +14.1 82 +17 +17 1003.7 993.5
08 22.09 ЮВ 3 40 км н/о +18.5 +14.3 77 +19 +19 1003.6 993.5
09 22.09 ЮВ 3 50 км н/о +20.4 +14.8 70 +23 +23 комфорт 1003.4 993.3
10 22.09 Ю 4 50 км в посл. час дождь н/о +20.7 +15.3 71 +24 +24 комфорт 1003.4 993.3
11 22.09 ЮВ 4 55 км в посл. час дождь н/о +21.7 +16.3 71 +25 +25 комфорт 1002.8 992.8
12 22.09 ЮВ 5 45 км н/о +21.5 +16.4 73 +25 +25 комфорт 1002.7 992.6 0.0
13 22.09 Ю 6 50 км н/о +23.1 +16.6 67 +28 +28 душно 1002.3 992.3
14 22.09 ЮЗ 9
{13}
11 км слаб. ливневой дождь н/о +17.3 +15.0 86 +16 +16 1003.6 993.4
15 22.09 ЮЗ 5 >70 км в посл. час дождь н/о +16.4 +15.6 95 +16 +16 1004.1 993.9
16 22.09 ЮЗ 4 >70 км в посл. час дождь н/о +16.8 +15.3 91 +16 +16 1004.1 993.9
17 22.09 ЮЗ 3 >70 км н/о +16.7 +14.7 88 +16 +16 1004.7 994.4
18 22.09 Ю 2 65 км н/о +16.2 +14.2 88 +16 +16 1004.8 994.5 +23.6 0.4
19 22.09 Ю 3 60 км в посл. час дождь н/о +16.1 +14.0 87 +16 +16 1005.5 995.2
20 22.09 Ю 3 50 км н/о +15.6 +13.6 88 +15 +15 1005.9 995.6
21 22.09 Ю 3 45 км н/о +15.0 +13.1 88 +14 +14 1006.4 996.0
22 22.09 Ю 2 45 км н/о +14.5 +12.7 89 +14 +14 1006.7 996.3
23 22.09 Ю 2 35 км н/о +14.0 +12.8 92 +13 +13 1007.1 996.7
00 23.09 Ю 2 30 км н/о +13.7 +12.7 94 +13 +13 1007.5 997.1 0.0
01 23.09 Ю 3 27 км н/о +13.4 +12.9 97 +12 +12 1007.7 997.3
02 23.09 Ю 3 30 км н/о +13.0 +12.4 96 +11 +11 1007.7 997.2
03 23.09 Ю 2 30 км н/о +13.1 +12.5 96 +12 +12 1008.1 997.7
04 23.09 Ю 2 27 км н/о +12.7 +12.3 97 +12 +12 1008.6 998.2
05 23.09 ЮЗ 3 35 км н/о +13.1 +12.6 97 +12 +12 1009.0 998.6
06 23.09 ЮЗ 4 70 км н/о +13.8 +12.4 91 +12 +12 1009.5 999.2 +12.6 0.0
07 23.09 ЮЗ 5 65 км н/о +14.1 +12.6 91 +12 +12 1010.1 999.8
08 23.09 ЮЗ 5 50 км н/о +14.7 +12.9 89 +13 +13 1010.7 1000.4
09 23.09 ЮЗ 6 50 км н/о +15.7 +12.8 83 +14 +14 1011.2 1000.9
10 23.09 ЮЗ 7 60 км н/о +17.5 +11.8 69 +17 +17 1011.2 1001.0
11 23.09 ЮЗ 6 70 км н/о +18.6 +10.5 59 +19 +19 1011.3 1001.0
12 23.09 ЮЗ 6 >70 км н/о +19.2 +9.7 54 +20 +20 1011.1 1000.9
13 23.09 ЮЗ 6 >70 км н/о +19.0 +10.6 58 +19 +19 1010.9 1000.7
14 23.09 Ю 6 >70 км н/о +19.9 +11.0 56 +21 +21 комфорт 1010.5 1000.4
15 23.09 Ю 6 70 км н/о +18.7 +10.7 60 +19 +19 1010.5 1000.3
16 23.09 ЮЗ 7 60 км н/о +18.0 +11.6 66 +17 +17 1010.4 1000.1
17 23.09 Ю 6 30 км слаб. ливневой дождь н/о +16.2 +12.7 80 +15 +15 1010.4 1000.1
18 23.09 Ю 3 16 км слаб. дождь н/о +15.3 +13.8 91 +15 +15 1010.3 1000.0 +20.7 0.6

 

Местоположение метеостанции Аэродром Andrewsfield (Великобритания): широта 51.88 долгота 0.45 высота над уровнем моря 87 м.

В архиве по умолчанию представлена погода на Аэродроме Andrewsfield за последнюю неделю. Архивные данные за месяц целиком и за предыдущие месяцы, начиная с января 2011 года, Вы можете получить, выбрав интересующий диапазон дат из раскрывающегося списка и нажав кнопку "Ввод!".


*Определитесь, кто Вы:
робот инопланетянин человек

Внимание! Время в таблицах - всемирное. Для получения местного времени необходимо прибавить поправку, которая равна 0 ч.

Смотрите также архив погоды в соседних городах и на ближайших метеорологических станциях:

Погода в Ротамстеде (Великобритания) (11 км)
Погода в Уоттишаме (Великобритания) (45 км)
Погода в Шоберинессе (Великобритания) (45 км)
Погода в Грейвзенде (Великобритания) (47 км)
Погода в Лондоне (Великобритания) (58 км)
Погода в Норхолте (Великобритания) (70 км)
Погода в Бедфорде (Великобритания) (74 км)
Погода на Аэродроме Кенли (Великобритания) (74 км)
Погода в Лондоне (Великобритания) (76 км)
Погода в Мархеме (Великобритания) (86 км)

Пояснения к столбцам:

Ветер - указаны скорость ветра в м/с - средняя за 10 мин, порывы в срок и между сроками (в фигурных скобках) и направление, откуда дует ветер: С - северный, СВ - северо-восточный, В - восточный, ЮВ - юго-восточный, Ю - южный, ЮЗ - юго-западный, З - западный, СЗ - северо-западный.
Видимость - горизонтальная дальность видимости в метрах или километрах. При видимости от 1 до 10 км при отсутствии осадков обычно наблюдается дымка, при ухудшении видимости до 1 км и менее - туман. В сухую погоду видимость может ухудшаться дымом, пылью или мглою.
Явления - указаны атмосферные явления, наблюдавшиеся в срок или в последний час перед сроком; фигурными скобками обозначены явления, наблюдавшиеся между сроками (за 1-3 часа до срока); квадратными скобками обозначены град или гололедные отложения с указанием их диаметра в мм.
Облачность - указаны через наклонную черту общая и нижняя облачность в баллах и высота нижней границы облаков в метрах; квадратными скобками обозначены формы облаков: Ci - перистые, Cs - перисто-слоистые, Cc - перисто-кучевые, Ac - высококучевые, As - высокослоистые, Sc - слоисто-кучевые, Ns - слоисто-дождевые, Cu - кучевые, Cb - кучево-дождевые. Подробнее классификацию облаков см. в Атласе облаков (PDF).
T - Температура воздуха - температура, измеренная на высоте 2 м над землей.
Td - Температура точки росы - температура, при понижении до которой содержащийся в воздухе водяной пар достигнет насыщения.
f - Относительная влажность воздуха - влажноcть воздуха, измеренная на высоте 2 м над землей.
Te - Эффективная температура - температура, которую ощущает одетый по сезону человек в тени. Характеристика душности погоды. При расчете учитывается влияние влажности воздуха и скорости ветра на теплоощущения человека.
Tes - Эффективная температура на солнце - температура, которую ощущает человек, с поправкой на солнечный нагрев. Характеристика знойности погоды. Зависит от высоты солнца над горизонтом, облачности и скорости ветра. Ночью, в пасмурную погоду, а также при ветре 12 м/с и более поправка равна нулю.
P - Атмосферное давление - приведенное к уровню моря атмосферное давление.
Po - Атмосферное давление - измеренное на уровне метеостанции атмосферное давление.
Tmin - Минимальная температура - минимум температуры воздуха на высоте 2 м над землей.
Tmax - Максимальная температура - максимум температуры воздуха на высоте 2 м над землей.
R - Количество осадков - Количество выпавших осадков за период времени, мм. При наведении курсора мыши на число - период времени, за который выпало указанное количество осадков.
R24 - Количество осадков - Количество выпавших осадков за 24 часа, мм.
S - Снежный покров - Высота снежного покрова, см. При наведении курсора мыши на число - состояние снежного покрова и степень покрытия местности в баллах.